Home   Weather   Nettetal   Past weeks

Flag for Germany Past Weather in Nettetal, North Rhine-Westphalia, Germany — Yesterday and Last 2 Weeks

Now
63 °F

Sprinkles. Passing clouds.


Feels Like: 63 °F
Forecast: 56 / 73 °F
Wind: 15 mph from Northwest

Location: Monchengladbach Airport

Current Time: Jul 25, 2017 at 4:54:15 pm

Latest Report: Jul 25, 2017 at 4:20 pm


Visibility: N/A

Pressure: 29.80 "Hg

Humidity: 83%

Dew Point: 57 °F

Location of NettetalLocation

Past Weather in Nettetal — Graph

°F

Nettetal Temperature Yesterday

Maximum temperature yesterday: 66 °F (at 6:20 pm)
Minimum temperature yesterday: 59 °F (at 8:50 am)
Average temperature yesterday: 62 °F

High & Low Weather Summary for the Past Weeks

 TemperatureHumidityPressure
High90 °F (Jul 19, 2:20 pm)100% (Jul 12, 7:50 am)30.24 "Hg (Jul 12, 7:50 am)
Low54 °F (Jul 13, 7:50 am)35% (Jul 13, 6:50 pm)29.68 "Hg (Jul 12, 12:50 pm)
Average69 °F63%29.96 "Hg
* Reported Jul 10 3:20 pm — Jul 25 3:20 pm, Nettetal. Weather by CustomWeather, © 2017

Note: Actual official high and low records may vary slightly from our data, if they occured in-between our weather recording intervals... More about our weather records

Advertising

Nettetal Weather History for the Previous 24 Hours

Scroll right to see more
 ConditionsComfort  
Time TempWeatherWind HumidityBarometerVisibility
3:20 pm
Tue, Jul 25
64 °FClear.21 mph73%29.80 "Hg10 mi
2:50 pm66 °FPartly cloudy.18 mph68%29.80 "HgN/A
2:20 pm66 °FPartly cloudy.22 mph64%29.80 "HgN/A
1:50 pm66 °FScattered showers. Partly cloudy.16 mph68%29.80 "HgN/A
1:20 pm66 °FPartly cloudy.12 mph78%29.80 "HgN/A
12:50 pm63 °FSprinkles. Passing clouds.15 mph83%29.80 "HgN/A
12:20 pm66 °FScattered clouds.18 mph68%29.80 "HgN/A
11:50 am66 °FBroken clouds.20 mph68%29.83 "HgN/A
11:20 am64 °FScattered clouds.21 mph73%29.83 "HgN/A
10:50 am63 °FPartly sunny.18 mph77%29.83 "Hg5 mi
10:20 am63 °FPartly sunny.18 mph83%29.83 "Hg4 mi
9:50 am63 °FFog.14 mph83%29.83 "Hg3 mi
9:20 am61 °FFog.17 mph94%29.83 "Hg3 mi
8:50 am61 °FFog.12 mph94%29.83 "Hg2 mi
8:20 am59 °FFog.10 mph100%29.83 "Hg3 mi
7:50 am59 °FLight rain. Fog.8 mph94%29.83 "Hg3 mi
6:50 am57 °FLight rain. Fog.7 mph100%29.83 "Hg2 mi
6:20 am57 °FLight rain. Fog.7 mph100%29.83 "Hg2 mi
5:50 am57 °FLight rain. Fog.8 mph100%29.83 "Hg2 mi
8:20 pm
Mon, Jul 24
63 °FScattered showers. Passing clouds.6 mph73%29.83 "HgN/A
7:50 pm64 °FPassing clouds.6 mph68%29.80 "HgN/A
7:20 pm66 °FPassing clouds.10 mph56%29.80 "HgN/A
6:50 pm66 °FPassing clouds.9 mph56%29.80 "HgN/A
6:20 pm66 °FPassing clouds.6 mph68%29.80 "HgN/A
5:50 pm63 °FPassing clouds.8 mph73%29.80 "HgN/A
5:20 pm63 °FPassing clouds.6 mph73%29.80 "HgN/A
4:50 pm63 °FPassing clouds.6 mph73%29.80 "HgN/A
4:20 pm61 °FPassing clouds.5 mph77%29.80 "HgN/A
Weather by CustomWeather, © 2017

See weather overviewHow to use our weather pages